Wind_Speed
29 28 28 27 27 25 23 20 19 17 15 15 15 15 16 17 17 17 17 17 17 16 15 14 13 13 12 12 12 13 14 14 15 16 18 18 18 17 17 18 19 20 21 21 21 21 20 20 20 20 21 23 25 26 26 25 24 23 22 22 22 23 25 27 30 33 35 35 33 32 31 31 31 31 33 35 33 31 32 32 32 33 33 34 35
30 29 27 27 27 26 23 21 20 19 17 17 16 16 16 17 17 18 18 18 18 16 15 14 13 13 12 12 12 13 14 15 16 17 18 19 18 18 18 19 21 22 22 22 21 21 21 22 22 21 20 22 23 25 26 26 26 25 23 22 22 22 23 27 30 30 33 35 34 33 32 31 31 30 31 33 32 31 31 30 31 32 31 32 34
30 28 27 27 27 26 24 23 22 21 19 18 17 17 17 17 18 18 18 18 18 16 15 14 13 13 13 13 13 14 15 17 18 19 19 19 19 19 20 22 23 23 23 22 22 22 22 23 23 23 22 22 23 23 24 26 27 28 26 24 23 23 21 23 29 32 33 34 33 32 32 31 30 28 28 30 30 30 30 30 32 33 31 32 33
30 28 27 28 27 27 25 24 24 22 20 19 18 18 18 17 18 18 18 18 16 15 14 13 13 13 13 13 14 15 17 18 19 19 19 19 19 20 21 22 22 22 21 22 22 23 23 24 25 24 24 24 24 23 23 23 25 28 29 28 26 26 23 22 24 29 33 36 36 33 30 29 28 27 27 28 29 31 31 31 32 32 32 32 32
30 28 27 28 29 28 27 26 25 23 21 20 19 18 18 17 17 17 16 15 14 14 13 13 13 13 13 14 15 17 18 20 21 20 20 20 20 22 22 23 23 22 22 21 21 22 24 25 26 26 26 26 25 24 23 22 22 24 27 29 29 29 28 24 23 24 27 33 35 34 32 30 27 27 27 28 29 30 32 33 32 31 31 30 31
31 28 27 28 29 29 29 28 27 24 22 20 20 19 18 17 16 15 14 13 13 13 13 13 13 13 14 16 17 19 21 21 21 21 21 21 22 24 25 26 27 27 26 25 24 23 24 24 26 27 28 28 28 27 25 23 22 22 23 26 28 30 31 29 26 24 25 27 29 31 33 33 30 28 28 28 29 30 31 34 34 31 31 32 32
34 31 29 29 30 30 30 29 27 25 22 21 20 18 17 16 14 13 12 12 12 12 13 13 13 14 16 18 20 22 22 22 21 21 22 23 25 26 27 28 30 30 30 30 29 28 27 26 27 27 28 28 29 29 29 27 26 24 23 24 26 28 31 32 30 28 26 26 28 28 28 30 32 32 29 27 29 32 33 34 36 35 33 34 34
37 34 31 31 31 30 30 29 27 24 22 21 19 17 16 14 13 12 11 11 11 12 12 13 14 16 18 20 22 23 23 22 23 23 25 26 27 29 30 32 33 33 33 33 33 33 32 31 31 31 30 30 30 29 29 29 29 28 27 26 26 27 30 32 33 33 31 29 30 28 25 25 28 30 30 29 31 33 33 33 35 36 34 33 33
39 35 31 30 29 30 30 29 27 25 22 20 18 16 15 14 12 11 11 11 11 12 13 14 15 18 20 22 23 24 24 24 25 26 27 29 31 32 34 35 35 34 33 33 35 36 37 37 36 35 35 34 34 33 32 31 31 31 30 29 28 29 30 31 33 35 35 34 33 32 31 28 26 26 29 31 32 32 32 33 35 36 36 34 34
39 35 31 29 28 29 30 29 27 25 22 20 18 15 14 13 11 10 10 11 11 12 13 15 17 19 21 23 24 24 25 26 27 28 29 31 34 36 36 37 35 32 31 32 33 35 36 38 39 39 39 38 37 37 36 35 34 33 33 33 32 31 31 32 33 33 35 36 36 35 35 35 30 27 27 29 30 32 33 34 35 37 39 38 37
38 34 31 28 26 28 31 30 27 24 21 18 17 15 13 11 10 10 11 11 12 14 15 16 18 20 22 23 24 25 26 27 28 29 32 35 36 37 37 37 35 32 31 30 31 32 33 36 37 39 40 40 40 39 39 39 38 38 37 37 36 35 35 35 35 35 35 37 38 38 37 37 35 32 29 28 28 31 34 35 35 38 41 41 39
37 34 31 28 27 27 30 29 25 22 20 17 15 13 11 10 10 11 12 12 14 15 16 17 19 21 22 23 23 25 26 27 29 32 35 37 37 38 38 37 35 34 33 32 32 32 33 33 34 35 37 38 39 40 40 40 40 40 41 41 41 40 39 38 38 37 37 37 39 40 40 39 38 36 34 31 29 31 34 38 39 39 42 43 41
35 32 30 28 27 26 29 28 23 20 19 16 13 11 10 10 10 11 12 13 15 16 17 19 20 21 21 21 23 25 27 30 33 35 37 38 38 38 37 36 36 36 36 35 35 35 35 35 35 35 35 35 36 37 38 39 39 39 40 42 44 45 44 43 42 41 40 39 41 43 42 40 40 39 36 33 33 32 32 37 42 42 43 43 41
34 32 30 29 27 27 28 26 21 19 17 14 12 10 10 10 10 11 13 14 16 17 18 19 19 19 20 22 24 27 29 32 35 37 38 39 39 38 38 37 37 37 38 38 38 38 38 38 38 37 36 36 36 36 37 38 39 39 40 41 42 44 46 46 46 45 44 43 43 45 44 42 41 41 37 34 34 33 31 33 38 43 43 42 40
36 34 31 29 27 26 26 24 21 18 15 12 11 10 10 10 10 12 14 16 17 18 18 18 19 20 22 24 27 30 32 34 36 37 38 38 37 37 37 37 37 38 38 38 38 38 37 37 37 38 37 37 36 36 36 36 37 39 40 41 42 43 44 46 46 47 47 47 46 46 46 45 43 42 40 35 34 35 33 31 33 37 39 40 40
38 33 28 27 25 24 24 22 19 17 14 12 11 11 11 12 13 15 16 16 18 18 18 19 20 22 24 26 29 31 32 32 32 32 32 32 32 33 34 35 36 37 37 36 36 37 36 36 37 37 38 38 37 36 35 35 36 37 39 41 43 43 44 44 43 44 47 49 50 49 48 48 46 44 42 38 35 35 33 32 34 34 35 37 40
39 34 28 25 23 22 23 21 18 16 14 13 13 13 14 14 14 15 15 16 17 17 18 19 21 23 25 27 28 29 28 27 27 28 28 28 29 30 30 32 34 35 36 37 37 37 37 37 37 38 39 39 38 37 35 35 36 37 38 40 41 43 44 43 40 41 43 45 49 51 51 50 48 46 43 40 36 32 30 32 36 36 35 37 40
38 33 28 26 24 22 22 20 19 17 14 13 14 14 13 13 13 14 15 15 15 15 17 19 21 23 24 25 25 26 27 28 28 28 28 28 29 30 30 31 33 35 36 38 39 39 39 39 38 39 40 39 37 36 35 34 35 37 38 39 40 43 43 41 40 41 40 40 44 47 49 51 50 47 44 40 37 32 30 33 37 37 38 39 39
33 30 26 26 26 25 23 21 18 15 12 12 12 12 11 12 12 11 11 11 12 14 17 20 21 22 23 24 24 27 31 32 31 31 30 30 30 31 31 32 34 36 37 38 40 40 40 40 39 38 38 38 36 36 35 34 35 36 37 38 42 44 42 38 38 39 38 38 39 41 43 46 47 47 45 42 39 35 32 34 36 38 39 39 39
29 28 27 27 27 25 23 21 17 12 11 11 10 10 10 8 6 6 8 10 12 15 19 20 21 21 23 25 27 31 35 36 34 33 32 32 31 31 31 32 34 36 37 38 39 39 39 39 39 38 37 36 36 36 36 34 34 35 36 38 42 43 39 37 38 37 36 37 37 37 38 39 41 44 46 44 41 38 34 33 35 38 39 39 40
32 31 30 28 26 23 20 18 14 11 11 10 7 5 3 2 4 6 9 11 13 17 20 21 21 21 23 25 28 34 37 38 37 35 34 33 32 30 30 31 32 34 36 38 39 40 40 40 40 39 37 37 37 36 36 35 34 35 37 40 41 40 37 37 38 36 36 38 38 37 38 37 38 41 45 46 44 39 35 34 35 37 39 39 41
33 33 31 28 26 23 18 14 12 10 8 5 3 3 3 4 5 7 9 11 15 18 20 21 21 22 23 26 31 36 39 40 39 37 36 34 32 30 29 30 30 32 35 38 39 39 40 40 40 38 37 37 37 36 36 36 35 36 38 39 39 38 36 36 37 37 38 39 39 40 41 40 38 38 42 46 46 41 35 33 34 36 39 38 39
33 33 32 29 26 21 16 13 11 10 8 8 9 8 5 5 5 7 10 13 16 18 19 19 20 22 25 28 33 38 40 41 40 39 37 36 33 30 29 29 29 31 34 37 39 40 40 40 39 38 37 36 36 36 36 35 35 37 37 37 36 36 36 36 36 38 39 40 40 42 43 42 39 37 39 44 46 42 36 32 31 32 36 38 39
34 31 28 25 21 17 15 14 13 12 12 13 13 11 9 6 5 7 10 13 16 17 17 18 20 23 26 30 35 39 42 42 40 39 38 36 33 31 29 29 30 31 34 38 39 40 41 40 39 37 36 36 36 35 35 36 36 37 37 37 36 35 36 38 39 39 39 41 41 42 43 42 40 38 37 40 45 42 35 31 28 26 30 38 43
32 27 22 19 17 17 17 15 14 14 13 12 12 11 10 7 6 7 10 13 15 16 16 17 20 23 26 31 37 41 43 43 41 40 38 36 33 31 30 31 32 34 36 39 40 41 40 39 39 37 36 36 36 35 35 36 37 38 38 39 38 38 38 40 40 40 41 42 42 42 42 41 39 37 35 36 41 41 34 29 27 24 28 39 46
27 23 20 18 16 16 16 14 13 11 7 5 6 7 8 8 7 7 9 12 14 15 17 18 20 24 28 32 37 41 43 43 42 40 37 35 33 32 32 34 35 36 38 40 40 39 38 38 37 37 36 36 35 35 36 36 36 36 37 38 39 41 42 41 41 42 42 42 41 41 41 39 36 34 32 32 38 41 34 26 26 26 28 36 44
21 19 19 18 14 13 14 12 9 6 3 0 2 4 7 9 9 8 10 12 14 15 17 19 21 25 28 32 37 41 43 42 41 39 37 35 35 35 35 36 37 37 39 39 38 36 36 36 36 35 35 35 35 35 35 35 35 34 35 36 38 40 42 43 43 43 43 42 41 40 39 36 34 32 30 31 36 40 34 27 26 26 27 33 42
19 19 19 16 11 11 12 10 7 5 2 1 2 4 8 10 10 10 12 13 14 15 18 20 22 25 28 31 36 40 42 42 40 38 36 35 36 37 37 37 37 37 37 36 35 35 35 35 34 34 34 34 34 33 33 33 33 33 33 34 36 37 38 41 44 45 44 42 40 38 37 35 32 30 29 29 34 37 34 27 26 26 27 33 41
21 20 17 13 11 12 12 9 7 5 3 3 2 5 10 10 10 12 13 13 15 17 19 19 21 24 27 30 35 39 42 42 39 36 35 35 35 35 35 34 34 33 33 32 33 34 34 34 33 32 32 31 31 32 32 32 32 31 30 30 32 33 34 37 41 43 43 41 40 38 35 32 29 28 27 28 31 36 34 28 26 27 29 35 40
20 17 14 13 13 13 12 10 8 5 4 3 1 8 11 10 11 12 13 14 16 18 19 19 20 23 25 29 32 36 40 41 38 35 34 33 32 32 31 30 29 30 30 30 30 32 33 33 32 30 29 30 31 32 31 29 29 28 27 28 29 29 30 32 34 36 37 38 38 36 32 28 26 26 26 27 31 35 33 28 26 28 32 37 40
18 16 14 13 13 13 12 10 8 6 5 2 5 10 11 10 11 13 14 16 18 18 19 19 20 22 25 29 32 35 39 40 36 33 33 32 31 30 28 27 26 27 26 26 27 28 29 30 30 29 29 31 32 30 28 27 27 26 25 25 26 27 28 29 30 31 33 34 33 31 28 27 26 25 25 28 31 33 32 28 28 31 34 37 40
18 16 14 14 14 13 10 9 8 6 4 2 6 12 14 14 14 15 16 18 18 18 18 19 20 22 24 28 31 35 40 39 35 32 32 31 30 29 26 24 23 23 22 21 23 24 25 26 27 27 28 29 29 27 24 23 24 23 23 24 25 25 26 27 28 29 30 29 29 29 28 28 26 24 25 29 31 31 30 30 31 34 36 38 40
18 18 16 15 14 11 8 8 8 5 3 2 7 12 15 15 15 16 17 19 20 20 19 18 19 21 23 27 31 35 40 39 33 31 32 31 29 28 25 22 20 20 20 20 22 23 24 24 25 24 24 26 25 23 19 18 17 18 19 20 21 21 21 22 25 28 30 29 28 29 29 28 26 25 26 28 30 30 30 31 34 37 38 39 39
18 17 15 15 13 9 7 8 7 4 2 2 5 8 11 13 14 15 16 18 21 22 22 20 20 20 23 27 30 35 40 38 32 30 32 32 30 28 26 22 19 20 22 23 24 24 25 25 24 23 23 23 21 18 15 13 12 13 13 13 14 15 16 18 21 27 31 32 31 30 29 28 27 27 27 29 31 31 32 33 36 38 39 39 38
15 14 13 12 10 7 6 7 5 2 0 2 2 2 6 9 12 14 15 16 20 23 24 24 24 23 25 28 31 36 40 38 32 30 33 33 31 29 28 26 24 24 25 26 26 26 26 25 25 24 22 21 19 15 12 11 11 10 9 9 10 13 15 18 21 24 27 30 31 30 29 28 28 29 30 32 33 34 34 35 37 39 39 37 36
12 13 13 10 7 5 6 5 3 1 2 3 3 2 4 6 9 12 13 14 17 22 24 25 27 27 28 29 32 36 40 39 34 32 34 34 32 31 31 31 30 30 29 29 29 27 26 25 24 24 22 20 18 15 12 10 10 10 9 10 11 12 14 17 20 23 25 27 28 28 28 29 30 31 33 34 34 34 34 36 38 38 37 36 36
13 13 11 8 5 5 5 3 1 1 2 4 4 3 4 6 8 11 13 12 15 20 24 25 28 30 31 31 33 35 39 40 36 33 35 35 34 32 32 32 31 32 31 30 30 29 27 26 24 23 22 20 18 16 13 11 10 10 9 9 10 10 9 10 13 18 22 24 25 27 29 30 31 33 35 35 34 33 34 36 37 36 35 35 35
13 10 7 5 5 4 4 3 2 2 3 5 4 3 5 7 9 12 14 13 13 18 24 26 27 31 33 33 33 35 39 41 39 37 38 38 36 34 33 32 31 31 31 30 30 29 27 26 24 22 21 19 17 16 13 11 11 10 8 8 8 8 6 6 10 15 20 23 25 27 29 30 32 35 35 34 33 33 35 36 36 35 34 33 34
8 5 4 4 3 3 4 4 3 2 4 4 3 4 6 7 8 11 14 14 12 15 22 26 27 29 32 33 32 34 38 42 43 40 40 40 37 35 33 32 32 31 31 30 30 29 27 26 24 22 20 18 16 15 13 11 10 8 7 6 6 6 6 7 11 16 20 23 26 28 30 32 34 34 33 32 33 34 35 36 35 34 34 34 35
5 5 4 4 3 3 4 4 3 3 4 3 3 4 5 7 7 7 10 13 13 13 19 24 26 29 31 32 31 32 36 41 43 41 39 39 38 35 33 32 31 31 30 30 29 28 26 25 23 22 20 18 16 14 11 9 7 6 5 4 4 5 7 10 15 19 22 25 28 30 32 33 33 33 33 33 34 34 35 35 34 34 35 37 38
8 9 9 7 6 5 5 5 4 4 3 1 2 4 4 6 5 4 7 11 12 13 16 21 25 27 29 30 30 30 33 39 42 42 39 38 37 35 33 31 30 29 29 28 28 26 25 24 23 22 20 17 15 13 10 7 5 3 3 3 3 5 9 13 18 21 23 26 28 29 31 31 31 32 33 33 32 32 33 34 36 37 38 39 40
12 13 12 10 8 8 7 6 5 4 3 2 2 5 5 5 5 5 6 9 10 12 15 19 22 25 27 29 29 28 30 35 41 43 41 38 37 35 33 31 30 29 28 26 26 26 24 23 23 22 20 18 15 13 10 7 5 3 1 1 4 7 10 14 16 19 21 23 26 28 29 29 30 31 31 31 31 32 34 36 38 39 39 40 41
15 15 13 11 11 10 8 6 5 4 2 1 3 5 6 6 5 5 6 7 8 10 13 17 20 22 25 27 27 27 29 33 37 42 43 40 37 35 33 32 30 29 28 26 25 24 23 22 22 21 20 18 15 13 10 7 5 4 2 2 5 8 11 13 15 16 18 21 24 26 27 28 29 29 30 31 32 34 37 39 40 41 42 42 43
14 14 12 11 10 9 8 6 4 3 2 3 4 4 5 6 6 6 7 8 7 8 12 15 17 19 22 25 26 27 28 31 34 38 42 42 38 35 33 32 31 30 29 27 26 25 24 22 21 20 19 18 16 14 11 8 5 5 5 5 6 10 13 15 16 17 18 21 24 26 27 28 29 31 33 34 36 37 40 41 42 43 44 43 42
11 10 9 8 8 7 6 4 3 2 3 3 3 3 4 5 7 8 9 10 9 10 12 13 15 17 19 22 24 25 26 28 30 33 37 41 40 36 33 32 31 30 29 28 27 27 25 23 21 20 19 18 16 14 12 9 6 5 6 7 9 12 15 18 19 19 20 22 25 27 28 29 31 33 36 38 39 40 43 44 44 44 44 42 41
9 9 8 6 6 5 4 2 2 1 1 2 2 3 4 5 6 8 10 11 12 12 13 13 13 15 17 19 22 24 24 25 27 29 32 36 39 37 33 31 30 30 29 28 27 28 26 24 22 20 19 18 16 14 12 10 8 7 8 9 11 14 17 19 21 22 23 24 26 29 30 32 34 37 39 40 41 42 44 43 42 41 41 39 37
5 6 5 4 2 1 1 1 2 1 1 1 2 3 4 6 7 8 10 11 12 13 13 13 13 14 15 17 20 23 23 24 25 26 27 30 35 37 36 32 29 29 29 28 27 27 26 24 23 21 19 18 17 15 13 12 10 10 10 11 12 14 17 18 20 22 24 26 28 30 32 35 37 39 40 41 41 42 42 40 39 38 36 35 33
2 2 2 2 2 2 2 1 1 2 1 1 2 4 6 7 8 9 11 12 12 12 12 12 12 12 13 14 17 21 22 23 23 25 25 25 28 33 36 35 31 28 28 29 29 28 26 24 22 21 20 19 18 17 16 14 13 12 13 13 13 14 15 17 19 22 24 26 28 30 33 35 38 39 40 40 41 41 40 38 37 35 34 33 31
4 4 4 4 4 5 5 5 4 2 2 2 4 6 7 9 10 11 11 11 11 11 11 11 10 10 11 12 14 17 20 21 22 23 24 24 24 26 32 35 34 30 28 28 28 28 26 24 22 20 19 19 19 18 17 17 16 15 15 14 14 14 15 17 19 22 23 25 27 30 34 37 39 40 40 39 39 38 37 36 35 33 32 31 30
5 5 5 5 5 5 6 6 6 6 6 6 6 7 8 9 10 11 12 12 11 10 10 10 10 10 10 10 12 14 17 19 21 21 22 23 22 22 25 30 33 33 30 28 28 27 26 24 23 21 18 17 17 18 18 18 18 16 15 13 14 14 15 17 20 21 23 25 28 31 34 36 38 38 37 37 36 35 35 34 33 32 31 31 31
4 4 3 3 3 3 4 4 5 6 6 7 7 8 8 9 9 10 11 11 11 11 10 10 10 10 9 10 10 12 13 15 17 19 19 21 21 21 21 23 27 30 31 29 29 29 28 25 23 22 20 18 17 16 16 16 17 16 15 14 14 15 16 18 20 21 23 26 29 31 32 34 35 36 35 34 34 33 33 32 31 30 30 30 31
Wind_Direction
237 237 236 236 239 241 241 240 238 235 234 237 242 247 250 251 252 251 250 253 256 262 269 277 286 292 296 304 313 321 326 327 325 321 319 318 317 316 314 312 311 307 302 294 287 285 287 288 289 289 285 278 271 268 267 263 263 267 270 274 277 279 280 280 280 280 277 275 276 275 273 271 267 266 266 266 263 258 258 261 261 260 260 257 253
237 237 236 236 239 241 242 240 236 233 234 238 242 245 248 250 251 252 252 255 259 265 272 280 287 291 298 308 316 321 322 321 318 316 314 314 315 313 310 308 308 307 303 296 287 281 281 282 283 285 288 287 281 273 269 265 263 264 266 269 274 277 280 281 279 279 279 278 277 275 275 277 276 273 271 272 272 268 264 261 257 255 258 256 252
237 237 236 236 239 241 241 239 236 235 236 240 245 246 247 249 250 253 255 257 261 266 273 280 285 291 302 311 315 317 317 316 313 312 311 311 311 309 307 306 307 307 305 299 289 280 278 277 278 280 282 285 285 281 276 269 265 264 264 265 270 274 280 285 281 275 276 278 279 278 277 276 277 277 276 276 275 272 266 261 258 256 256 257 254
237 236 236 237 238 239 239 237 235 236 239 243 246 246 247 248 249 252 254 256 261 267 274 280 286 295 304 308 312 312 311 309 307 306 305 304 303 302 301 302 303 306 307 303 296 286 280 277 276 276 278 280 282 283 283 279 271 267 265 264 265 268 274 285 285 278 275 276 277 278 277 276 274 274 275 275 274 271 267 264 261 258 257 256 254
236 234 235 236 236 236 235 234 234 236 240 244 245 245 246 247 248 250 253 258 265 271 277 285 291 299 304 306 307 306 304 304 304 304 303 301 300 299 299 299 299 298 298 297 295 290 285 282 278 275 276 276 278 279 281 284 280 274 270 267 266 267 269 275 281 280 278 276 276 277 277 275 273 271 269 269 269 269 268 265 261 259 255 253 252
235 232 232 232 233 233 231 231 233 236 240 242 243 244 246 248 249 253 258 263 268 272 279 288 295 299 302 302 302 301 302 304 305 305 304 303 302 302 301 300 298 295 293 289 286 285 284 282 279 276 274 274 275 275 276 278 279 275 272 269 267 267 267 269 273 276 278 278 277 279 278 274 271 270 267 266 267 267 268 266 262 258 253 249 249
234 231 231 231 231 230 229 230 233 235 238 240 241 243 246 250 253 257 261 261 265 272 281 289 293 295 298 299 300 301 303 306 307 306 305 303 302 300 299 298 296 291 288 285 282 280 278 278 277 275 273 271 271 272 272 273 274 274 271 268 267 266 266 266 268 271 275 276 276 279 281 278 275 271 267 266 266 265 265 264 262 258 252 248 249
233 231 231 232 232 231 230 231 234 236 237 238 239 242 244 248 253 254 256 258 265 276 282 285 288 292 296 299 301 304 306 307 307 306 304 303 301 300 299 299 297 291 283 279 277 276 275 274 274 274 272 270 268 267 267 268 269 270 269 268 268 268 267 265 264 267 270 272 272 272 277 282 283 277 268 262 261 260 261 262 261 258 255 252 251
232 229 232 234 235 234 232 233 234 234 235 235 236 239 240 244 249 250 253 261 270 276 277 279 286 292 298 301 302 304 304 304 304 304 303 303 303 303 303 302 300 294 285 279 275 273 272 272 272 272 271 270 268 266 264 263 265 266 266 266 266 267 268 267 265 265 267 269 269 268 270 275 281 282 274 264 259 259 261 261 259 259 258 255 251
229 227 231 234 235 236 235 234 233 231 230 231 232 235 238 242 246 251 259 267 270 270 272 279 288 294 298 300 301 301 301 300 301 302 302 303 304 304 304 303 301 295 288 283 279 276 273 272 271 271 270 269 268 266 263 260 260 261 262 262 263 264 266 267 266 265 266 268 267 267 270 270 270 276 279 275 269 263 259 258 257 256 255 251 248
225 226 231 233 233 237 236 232 231 229 227 227 228 231 237 243 251 259 265 268 267 268 275 282 287 291 296 298 298 298 297 298 298 298 299 301 303 304 304 303 301 295 290 286 283 281 278 275 273 272 271 270 268 267 266 263 259 258 257 257 258 260 262 264 265 264 265 267 267 266 269 269 267 268 274 279 279 270 261 258 255 252 251 249 248
227 226 228 230 233 235 233 230 228 226 223 222 225 230 237 246 255 262 265 267 267 270 274 278 283 290 295 295 294 293 293 294 295 297 299 301 303 303 302 301 298 295 292 288 286 284 282 280 278 275 273 272 271 270 269 266 263 260 257 255 254 254 255 258 261 262 263 265 265 264 266 268 267 265 267 273 277 273 265 259 254 251 250 250 251
233 230 228 228 226 225 227 226 223 221 220 221 224 227 234 245 256 265 267 265 265 266 270 277 285 289 289 288 287 288 291 294 297 299 301 302 302 302 301 299 296 293 291 289 287 285 284 283 281 278 276 275 273 272 270 268 266 263 260 258 255 253 252 252 254 257 259 261 263 262 262 266 267 265 265 269 273 277 273 261 253 251 251 253 255
237 233 228 223 218 217 219 217 214 216 218 218 221 227 237 248 256 259 258 256 259 264 272 279 282 281 281 284 287 291 295 297 300 301 302 302 301 300 298 296 293 290 288 286 285 284 284 284 282 281 279 277 275 275 273 272 270 268 265 262 258 254 252 250 250 251 253 255 258 259 259 261 263 264 264 265 268 272 274 265 254 248 246 248 253
230 222 217 215 212 211 209 205 205 209 210 211 220 229 235 240 243 244 247 252 259 266 272 275 277 280 285 290 294 297 300 301 302 302 301 300 299 298 295 292 289 287 285 283 282 282 282 282 282 282 282 281 280 279 278 277 275 272 270 266 263 259 256 252 250 249 249 251 252 254 256 256 258 259 260 260 262 264 269 270 264 255 249 248 250
216 208 207 209 208 204 200 199 199 198 198 203 214 221 227 233 239 243 249 257 263 269 276 280 286 291 295 298 301 303 304 304 304 304 302 301 300 297 294 289 286 283 282 280 279 279 279 279 280 282 283 283 283 283 282 282 279 275 272 269 268 265 262 259 256 252 249 249 249 250 251 252 254 254 254 255 257 260 265 268 266 262 258 255 254
204 200 202 204 203 202 200 195 187 183 188 199 211 222 231 237 243 249 257 265 273 281 289 293 297 299 301 303 304 304 306 308 310 310 308 306 303 299 296 291 286 283 280 279 277 276 276 277 278 280 281 282 284 285 285 284 281 277 274 272 270 269 266 265 265 260 255 251 250 249 249 250 250 251 251 251 252 255 259 260 259 258 257 255 254
200 198 199 196 191 189 187 182 176 178 190 206 218 228 235 242 252 261 270 279 290 297 300 300 300 301 303 305 305 309 313 316 317 316 314 311 307 302 298 295 290 286 283 280 278 276 275 275 276 277 278 279 281 282 283 281 278 275 272 272 271 269 268 269 270 268 265 259 254 251 250 249 249 249 249 249 247 247 251 253 252 253 255 253 253
195 194 192 185 179 178 179 178 178 184 198 213 224 234 243 253 264 275 288 299 307 307 304 303 303 303 306 310 314 320 323 323 323 321 318 315 310 304 299 295 292 290 286 283 280 278 277 276 275 274 275 277 279 279 279 277 274 272 270 269 268 267 268 270 270 270 270 267 262 257 252 249 248 248 247 247 244 242 246 249 246 247 251 253 252
189 185 181 176 176 178 179 178 180 186 201 215 229 242 252 264 284 308 320 318 314 309 308 309 307 305 310 317 322 327 328 327 326 324 321 317 312 306 300 294 291 290 289 288 286 283 281 279 276 275 275 277 277 277 276 274 271 270 267 264 264 266 268 269 269 268 268 267 266 264 258 251 247 244 243 243 240 239 244 247 244 243 246 251 251
181 174 171 171 174 173 169 170 177 187 199 209 222 233 252 332 345 337 329 322 315 312 314 315 312 309 315 321 324 327 330 330 329 327 323 319 313 307 300 294 292 292 292 291 290 289 287 284 281 279 278 277 276 275 274 272 270 268 265 262 262 264 266 267 267 267 267 264 263 263 259 253 246 240 238 238 237 237 242 244 243 242 244 246 248
169 166 163 163 164 163 161 164 170 175 175 166 133 97 57 14 348 336 330 323 318 317 317 317 316 316 320 323 323 327 331 332 330 328 325 320 314 307 301 297 296 295 294 293 292 291 290 288 285 283 280 277 275 273 272 270 268 266 264 264 263 262 262 263 264 264 264 263 261 260 259 255 249 241 236 234 233 235 240 242 242 243 243 244 247
158 157 157 158 158 160 162 159 153 143 121 92 75 64 45 15 353 341 332 324 324 324 321 319 319 320 321 322 324 328 331 332 331 328 326 322 316 309 303 300 300 299 296 294 294 293 292 289 286 285 283 280 278 275 272 271 269 267 264 263 262 260 258 257 258 259 260 260 260 260 258 256 251 245 237 231 230 233 238 241 244 245 243 243 245
154 151 154 158 159 157 153 145 132 112 88 71 59 50 39 21 352 335 331 328 326 325 323 322 323 322 321 322 325 330 333 333 331 329 326 323 317 312 308 306 305 304 300 297 297 296 294 291 289 287 285 283 281 278 276 273 270 267 264 261 257 255 254 253 252 254 256 257 257 258 257 255 252 248 240 232 229 230 235 241 244 246 248 246 243
150 149 151 151 145 141 136 127 115 98 78 60 47 37 29 19 348 324 326 326 323 325 329 329 326 323 322 324 328 332 334 333 332 331 328 324 319 315 313 311 310 308 304 301 299 296 294 292 290 288 286 284 281 278 276 272 268 265 263 260 255 251 249 250 250 251 252 253 255 256 256 255 253 250 245 237 231 229 231 238 241 244 250 247 239
150 149 145 135 127 132 135 124 108 99 85 58 32 19 17 14 353 327 322 324 326 332 336 334 329 326 327 329 331 334 335 335 334 333 330 326 322 320 318 315 312 309 305 302 299 297 295 293 292 289 286 283 280 277 274 272 269 267 264 259 253 248 245 245 247 248 249 250 252 254 255 255 254 253 250 243 233 227 227 235 239 242 249 247 238
148 144 138 128 120 135 146 133 115 119 130 88 322 339 3 8 358 340 330 330 334 339 341 339 334 331 331 333 335 337 338 337 337 335 332 329 326 323 320 316 313 310 307 304 302 301 298 296 293 290 287 283 280 278 275 273 272 270 266 260 254 249 244 242 243 245 247 249 250 252 253 255 255 254 252 244 232 225 225 235 241 241 247 247 237
143 137 134 130 126 140 149 141 135 149 166 225 264 326 2 5 356 347 343 341 342 345 346 343 337 334 335 336 337 339 341 340 339 336 333 330 327 323 319 317 314 312 309 308 307 303 300 297 295 291 288 285 283 280 279 278 276 274 269 263 258 253 247 242 241 243 245 247 249 250 250 251 251 250 248 242 232 225 225 235 244 245 247 244 234
136 131 131 134 134 138 143 146 152 161 177 212 256 359 11 6 355 351 351 351 352 351 349 344 337 336 337 338 339 342 343 343 340 337 333 330 326 322 319 318 316 314 313 311 307 303 301 300 298 296 292 289 288 287 285 283 280 276 270 264 259 255 249 243 241 242 244 245 246 246 246 246 245 244 244 239 229 223 225 235 242 243 242 237 232
132 133 136 141 143 144 151 163 171 175 184 202 356 19 21 12 3 0 359 0 359 354 350 345 340 339 340 340 342 345 346 344 340 336 334 330 326 324 322 320 319 318 316 312 307 303 304 304 302 301 298 296 295 294 290 286 282 276 270 263 258 253 249 245 242 241 242 242 242 241 239 236 236 238 238 232 224 222 226 234 239 238 235 230 225
137 144 144 147 153 157 162 172 178 176 174 160 35 37 37 29 22 19 15 12 7 358 351 347 345 344 343 342 344 348 349 346 341 338 337 334 331 330 329 326 326 323 319 314 310 308 308 308 305 303 301 300 299 297 293 287 281 276 270 264 257 251 248 245 242 239 238 236 234 231 229 228 233 237 232 222 219 222 227 231 233 233 231 228 223
145 151 148 149 152 153 158 169 172 167 161 104 52 54 55 50 45 38 31 24 16 6 358 352 348 346 346 345 346 350 351 348 344 342 342 340 338 337 335 333 333 331 325 321 319 319 318 315 309 305 303 301 300 297 294 288 282 275 267 261 257 252 246 240 236 234 231 225 222 222 223 226 232 235 225 216 216 222 227 227 226 224 221 220 218
143 146 147 151 150 142 141 150 155 163 166 96 67 63 58 53 48 42 35 30 23 16 10 0 350 347 349 351 352 354 353 350 347 348 349 347 345 344 343 341 343 344 343 339 335 333 331 325 318 313 309 305 302 300 296 291 283 273 263 257 254 251 243 234 229 228 224 219 219 221 222 225 229 229 221 216 218 223 225 223 219 215 212 210 209
140 146 155 161 159 148 136 141 155 183 190 98 76 61 48 42 41 38 32 25 21 18 15 10 3 357 355 355 358 358 356 353 352 353 354 353 352 352 351 351 353 357 358 353 347 343 339 333 328 325 320 315 311 307 302 297 286 271 260 255 253 248 240 231 227 225 223 222 224 225 225 227 226 220 215 216 219 221 221 218 213 209 208 206 203
143 154 164 164 159 152 149 155 169 194 31 47 52 30 21 21 27 30 26 20 16 13 13 13 13 9 3 0 2 2 359 357 357 359 0 359 359 359 360 1 2 3 3 359 354 349 344 338 335 333 329 324 321 317 310 302 290 275 261 254 250 248 244 238 233 229 226 225 226 226 227 226 221 213 212 215 217 216 215 212 209 206 204 203 199
157 166 168 165 160 156 157 160 168 212 2 28 40 22 4 1 5 11 14 14 13 10 9 10 12 12 9 6 5 3 1 360 2 4 5 4 5 6 7 6 5 4 3 0 356 351 347 343 340 339 336 330 326 324 320 313 304 291 277 266 259 256 252 243 234 228 225 225 224 222 220 217 213 211 213 214 212 210 208 205 203 201 199 198 195
168 169 169 170 168 155 143 136 129 340 15 59 74 48 19 9 0 0 3 4 7 9 8 8 10 11 10 9 8 5 2 2 5 9 9 10 11 11 11 8 6 4 2 359 356 353 350 348 345 343 340 334 329 328 329 328 322 312 299 287 276 268 259 241 222 210 207 210 211 209 207 207 208 211 213 211 206 203 201 198 195 193 192 192 188
159 159 157 160 160 141 113 86 42 19 71 92 86 39 21 17 10 7 3 356 358 7 8 8 10 11 10 9 9 6 3 4 9 12 13 13 13 13 12 10 7 4 2 360 357 355 353 352 349 345 342 338 335 334 335 335 332 326 317 306 289 272 256 233 214 201 194 195 197 198 201 205 208 210 211 208 202 196 194 192 190 186 182 182 180
144 132 125 135 138 112 84 67 48 78 120 112 62 18 11 7 7 12 8 359 354 1 5 8 12 14 11 8 8 6 5 7 11 14 15 15 14 13 12 10 8 5 3 1 0 359 356 354 353 350 346 344 343 341 340 338 335 329 322 311 291 265 239 221 214 205 197 194 194 196 201 205 205 205 205 202 197 192 188 185 185 182 177 173 171
113 101 95 98 105 93 81 79 93 127 132 106 16 348 341 344 350 1 5 3 358 355 1 9 15 16 13 11 9 7 7 10 14 16 16 16 15 14 13 11 9 7 5 3 2 1 359 357 356 355 353 351 349 349 347 344 338 331 317 301 282 252 229 216 209 203 199 198 198 199 200 200 197 196 195 193 190 187 182 178 176 175 172 169 167
106 98 92 90 99 99 92 105 131 142 137 103 4 357 352 353 357 359 2 5 2 355 0 11 17 17 15 14 12 11 11 13 16 17 18 18 17 15 14 13 11 9 6 5 3 2 1 1 0 359 359 358 356 355 356 355 352 342 310 277 244 221 211 204 200 198 196 193 194 195 194 193 191 189 187 182 179 177 175 171 168 167 165 164 163
107 101 95 93 102 112 118 131 150 160 160 151 41 26 18 11 14 16 9 8 6 359 1 9 15 17 17 16 15 14 14 16 18 19 20 20 20 18 18 17 15 13 10 8 6 5 3 3 3 3 4 4 3 1 3 11 23 28 351 245 195 192 195 193 192 192 190 186 185 186 185 184 183 182 178 174 170 168 166 163 162 160 158 157 156
111 109 110 112 119 129 138 149 167 176 159 89 34 27 21 12 15 15 1 359 3 360 357 2 10 14 17 19 20 19 17 18 20 20 20 21 21 21 21 20 19 18 16 13 11 9 7 7 8 7 6 8 10 10 12 22 43 69 98 161 165 165 173 181 184 185 183 179 177 177 175 173 173 172 169 166 165 162 159 157 155 154 152 151 152
127 124 123 122 126 137 148 153 156 144 85 38 22 24 24 23 28 25 7 360 1 353 348 355 6 13 16 20 24 24 21 20 21 20 21 21 22 22 23 23 22 21 21 20 19 16 14 13 15 14 12 12 13 15 19 26 42 79 114 146 156 150 154 164 172 176 176 173 170 168 166 164 164 162 160 160 160 157 155 153 151 150 149 149 150
146 144 140 136 137 144 154 155 142 105 60 35 29 40 43 37 32 22 9 2 359 352 350 357 8 13 15 19 24 26 25 23 21 20 20 21 22 23 24 25 24 23 22 23 24 23 22 21 21 21 21 21 19 19 26 36 46 75 113 137 147 146 145 148 154 162 167 167 164 162 160 158 157 156 154 154 155 153 151 151 150 149 149 150 149
141 145 146 145 143 144 152 164 171 164 29 25 37 52 54 44 29 15 6 1 358 356 358 3 8 11 14 18 22 25 26 24 22 20 18 20 22 24 24 24 25 25 25 25 26 26 26 27 28 28 29 30 30 30 35 44 57 78 104 124 137 140 142 143 145 150 156 157 157 156 155 153 152 152 151 151 151 150 149 149 149 148 147 146 145
130 137 140 139 137 143 172 200 219 247 305 9 19 25 33 32 23 11 5 1 356 354 357 1 5 9 13 16 20 23 25 25 24 21 18 18 21 25 26 26 26 27 28 29 29 29 28 29 31 34 36 37 39 44 48 54 65 80 94 110 124 132 138 143 146 148 151 152 152 152 151 149 149 149 150 150 149 147 145 144 143 142 141 141 141
69 104 115 85 33 6 359 343 279 267 278 316 348 3 14 17 14 10 6 1 355 352 353 357 2 6 10 14 18 22 25 26 27 25 22 18 19 23 27 29 29 30 33 35 34 33 32 32 33 36 41 44 46 51 57 64 73 82 92 102 114 123 131 138 141 143 145 147 148 149 149 149 148 148 147 146 144 141 140 139 140 140 141 142 143
55 58 59 50 40 37 38 37 36 33 25 13 9 12 13 12 12 13 11 6 1 355 351 352 357 3 7 13 17 20 24 28 30 30 27 22 20 21 26 30 32 32 33 33 32 31 33 36 37 38 43 48 52 55 60 65 72 80 91 102 112 120 127 132 135 138 140 143 146 148 147 144 143 141 140 140 139 138 138 139 140 142 142 142 143
47 43 37 29 28 31 32 30 31 34 33 28 23 19 16 14 14 14 14 12 8 2 354 350 352 358 4 11 16 18 21 25 29 31 31 27 23 21 24 30 33 34 33 30 28 28 30 35 40 43 46 51 56 60 62 64 68 75 87 103 116 123 127 129 132 137 140 142 142 141 139 137 137 137 138 139 140 140 139 139 140 141 141 141 142
33 26 17 9 10 14 13 12 16 19 19 17 16 14 13 12 11 10 11 11 10 7 360 351 347 350 358 5 11 17 20 21 23 29 33 32 27 24 22 26 32 37 38 37 36 36 37 38 41 45 48 53 57 62 66 68 69 73 80 92 106 117 126 132 135 138 139 139 138 137 138 138 138 138 138 139 139 138 137 137 137 137 137 138 140
Height
1498 1500 1502 1503 1505 1506 1508 1510 1510 1511 1512 1513 1513 1514 1514 1515 1516 1517 1518 1518 1519 1519 1520 1519 1519 1519 1518 1517 1516 1515 1514 1514 1513 1513 1512 1511 1511 1510 1510 1509 1509 1508 1507 1506 1506 1505 1505 1504 1503 1504 1504 1503 1503 1504 1504 1505 1506 1506 1506 1506 1506 1506 1507 1507 1505 1503 1501 1503 1504 1505 1506 1507 1507 1508 1508 1508 1509 1511 1511 1512 1513 1514 1514 1514 1515
1495 1497 1499 1501 1503 1504 1506 1508 1509 1509 1510 1510 1511 1512 1512 1513 1514 1515 1515 1516 1517 1517 1518 1517 1517 1516 1516 1515 1514 1513 1512 1512 1511 1510 1509 1509 1508 1508 1507 1507 1506 1505 1505 1504 1503 1503 1503 1502 1501 1501 1501 1501 1501 1501 1501 1502 1502 1502 1503 1503 1502 1502 1503 1503 1503 1501 1498 1498 1500 1501 1502 1503 1503 1504 1504 1504 1505 1506 1507 1508 1510 1510 1511 1510 1511
1493 1495 1497 1499 1500 1502 1504 1505 1506 1507 1508 1508 1509 1509 1510 1511 1512 1512 1513 1514 1515 1515 1515 1515 1515 1514 1513 1512 1511 1511 1510 1509 1508 1508 1507 1506 1505 1505 1505 1504 1503 1503 1502 1501 1501 1501 1500 1499 1499 1499 1499 1498 1498 1498 1498 1499 1499 1499 1499 1500 1499 1499 1499 1500 1499 1498 1496 1494 1495 1497 1498 1499 1499 1500 1501 1500 1501 1502 1503 1504 1506 1506 1507 1507 1507
1490 1492 1494 1496 1498 1499 1501 1503 1504 1505 1505 1506 1506 1507 1508 1509 1509 1510 1511 1512 1513 1513 1513 1513 1512 1511 1511 1510 1509 1509 1508 1507 1506 1505 1504 1503 1503 1502 1502 1501 1500 1500 1499 1498 1498 1497 1497 1496 1496 1496 1496 1495 1494 1494 1495 1495 1495 1496 1495 1496 1496 1495 1495 1496 1495 1495 1493 1491 1491 1492 1494 1495 1496 1497 1498 1498 1498 1499 1499 1500 1501 1502 1503 1503 1503
1488 1488 1490 1492 1494 1496 1498 1499 1501 1502 1502 1503 1504 1505 1506 1506 1507 1508 1509 1510 1510 1511 1511 1510 1510 1509 1508 1508 1507 1506 1505 1504 1503 1503 1502 1501 1500 1499 1499 1498 1497 1496 1496 1495 1495 1494 1494 1493 1493 1493 1493 1492 1491 1491 1491 1491 1492 1492 1492 1492 1492 1492 1492 1492 1492 1491 1490 1488 1488 1488 1490 1491 1492 1493 1494 1495 1495 1495 1495 1496 1496 1498 1499 1499 1500
1485 1486 1487 1488 1489 1492 1494 1496 1497 1498 1500 1501 1502 1503 1504 1505 1505 1506 1507 1508 1508 1509 1508 1508 1507 1507 1506 1506 1505 1504 1503 1502 1501 1500 1499 1499 1498 1497 1496 1495 1494 1493 1493 1492 1491 1491 1490 1490 1490 1490 1489 1489 1489 1488 1488 1488 1488 1488 1488 1488 1488 1488 1488 1488 1488 1487 1486 1485 1484 1484 1485 1487 1488 1489 1490 1491 1492 1492 1492 1492 1493 1494 1495 1495 1495
1482 1483 1484 1484 1486 1488 1490 1492 1494 1495 1497 1498 1500 1501 1502 1503 1504 1504 1505 1505 1506 1506 1506 1506 1506 1505 1505 1504 1503 1502 1501 1500 1499 1498 1497 1496 1495 1494 1493 1492 1491 1490 1489 1488 1488 1487 1487 1486 1486 1486 1486 1485 1485 1485 1485 1485 1484 1484 1484 1484 1484 1484 1483 1483 1484 1483 1483 1482 1482 1482 1482 1483 1484 1485 1486 1488 1488 1488 1488 1489 1489 1490 1491 1491 1491
1479 1481 1481 1482 1484 1486 1488 1490 1492 1493 1495 1496 1498 1499 1500 1501 1502 1503 1503 1503 1504 1504 1504 1504 1504 1503 1503 1502 1501 1500 1499 1498 1497 1496 1494 1493 1492 1490 1489 1487 1486 1484 1484 1483 1483 1483 1482 1482 1482 1482 1482 1481 1481 1481 1481 1481 1481 1480 1480 1481 1480 1480 1479 1479 1479 1479 1479 1479 1479 1479 1479 1479 1480 1481 1483 1484 1483 1483 1484 1485 1485 1485 1487 1488 1489
1476 1478 1479 1480 1482 1484 1486 1488 1489 1491 1493 1494 1496 1497 1498 1499 1500 1501 1501 1501 1501 1501 1501 1502 1501 1501 1500 1500 1499 1498 1496 1495 1494 1493 1492 1490 1488 1486 1485 1483 1481 1479 1478 1477 1477 1477 1477 1477 1477 1477 1477 1477 1477 1477 1477 1477 1477 1476 1476 1477 1477 1476 1476 1476 1476 1476 1475 1475 1475 1476 1476 1476 1477 1478 1479 1479 1479 1480 1481 1482 1481 1482 1483 1484 1485
1471 1473 1475 1476 1479 1482 1484 1486 1487 1489 1490 1492 1494 1495 1496 1498 1499 1499 1500 1499 1499 1499 1499 1499 1499 1498 1498 1497 1496 1495 1494 1494 1492 1491 1489 1487 1484 1482 1480 1478 1476 1474 1473 1471 1471 1471 1471 1471 1471 1471 1471 1471 1472 1472 1472 1473 1473 1472 1472 1472 1472 1472 1472 1472 1472 1472 1472 1471 1472 1473 1472 1472 1474 1476 1476 1476 1476 1477 1478 1479 1479 1479 1479 1479 1481
1464 1467 1470 1473 1476 1479 1482 1484 1485 1487 1488 1489 1491 1493 1495 1496 1497 1498 1498 1498 1497 1497 1497 1497 1496 1496 1495 1494 1494 1493 1492 1491 1489 1488 1486 1483 1481 1478 1475 1473 1471 1470 1468 1467 1466 1465 1465 1465 1465 1465 1465 1465 1465 1466 1466 1467 1467 1467 1467 1468 1468 1468 1468 1467 1467 1468 1468 1467 1467 1469 1468 1468 1470 1472 1473 1473 1474 1474 1474 1475 1475 1475 1474 1474 1476
1460 1462 1465 1469 1472 1475 1479 1481 1483 1485 1486 1487 1489 1491 1493 1494 1495 1496 1496 1496 1496 1495 1495 1495 1494 1493 1492 1491 1490 1489 1489 1488 1486 1484 1482 1479 1477 1474 1471 1469 1467 1465 1464 1463 1462 1461 1460 1459 1459 1459 1459 1459 1459 1459 1459 1460 1460 1461 1461 1462 1462 1463 1463 1463 1463 1463 1464 1463 1463 1463 1464 1464 1465 1468 1469 1470 1471 1471 1470 1470 1470 1470 1470 1470 1471
1460 1461 1464 1465 1468 1471 1475 1479 1481 1483 1484 1486 1487 1489 1490 1492 1493 1494 1494 1494 1494 1494 1494 1493 1492 1491 1490 1488 1487 1486 1485 1484 1482 1480 1477 1475 1473 1470 1467 1465 1463 1461 1460 1458 1457 1456 1455 1454 1453 1453 1453 1453 1453 1453 1453 1453 1453 1454 1454 1455 1455 1456 1457 1458 1458 1458 1459 1459 1458 1458 1459 1460 1461 1462 1465 1467 1467 1468 1468 1467 1466 1466 1466 1466 1467
1459 1461 1463 1464 1465 1467 1471 1474 1477 1480 1482 1484 1485 1487 1488 1490 1491 1491 1492 1492 1492 1492 1491 1491 1490 1488 1487 1485 1484 1482 1481 1480 1478 1476 1473 1471 1468 1465 1463 1460 1458 1456 1455 1454 1453 1451 1450 1449 1448 1447 1447 1447 1447 1447 1447 1447 1447 1447 1447 1447 1447 1448 1449 1451 1452 1453 1454 1454 1453 1452 1454 1456 1456 1457 1460 1463 1463 1464 1465 1465 1464 1463 1462 1463 1464
1456 1458 1460 1462 1463 1465 1468 1470 1473 1476 1479 1482 1484 1486 1487 1487 1488 1489 1489 1489 1489 1489 1489 1488 1487 1485 1484 1482 1480 1478 1477 1476 1473 1471 1469 1466 1464 1461 1458 1455 1453 1451 1450 1449 1448 1446 1446 1445 1443 1442 1441 1441 1442 1442 1442 1442 1441 1440 1440 1439 1439 1440 1441 1442 1445 1447 1447 1447 1447 1447 1448 1450 1451 1453 1455 1457 1458 1459 1460 1461 1462 1462 1461 1461 1462
1453 1455 1457 1460 1462 1464 1466 1468 1470 1473 1477 1480 1482 1484 1485 1485 1485 1486 1486 1487 1487 1486 1486 1485 1484 1482 1480 1478 1476 1475 1473 1472 1470 1467 1464 1462 1459 1456 1453 1450 1448 1446 1444 1443 1443 1441 1441 1440 1438 1437 1436 1435 1436 1436 1437 1437 1436 1434 1433 1432 1432 1432 1432 1434 1437 1439 1440 1441 1441 1442 1442 1444 1446 1447 1449 1452 1453 1455 1456 1457 1457 1458 1459 1459 1459
1449 1451 1454 1457 1460 1464 1466 1467 1468 1471 1475 1478 1480 1482 1482 1482 1483 1483 1484 1484 1484 1484 1483 1482 1480 1478 1477 1475 1473 1471 1470 1468 1466 1463 1460 1457 1454 1451 1448 1445 1443 1440 1439 1438 1437 1436 1435 1435 1434 1432 1430 1430 1430 1431 1432 1432 1430 1428 1427 1426 1426 1425 1424 1427 1430 1431 1432 1434 1434 1435 1436 1437 1439 1441 1443 1446 1448 1450 1452 1451 1451 1453 1454 1454 1454
1445 1447 1450 1453 1457 1462 1465 1466 1467 1470 1474 1477 1479 1480 1480 1480 1481 1481 1481 1481 1481 1481 1480 1479 1477 1476 1474 1472 1470 1468 1466 1464 1462 1458 1456 1453 1450 1447 1444 1440 1437 1435 1433 1432 1431 1430 1429 1429 1428 1427 1425 1425 1425 1425 1426 1426 1424 1423 1421 1420 1419 1417 1418 1421 1423 1423 1424 1426 1427 1428 1429 1431 1432 1435 1437 1440 1443 1445 1446 1445 1446 1448 1449 1449 1450
1442 1445 1448 1451 1455 1460 1463 1465 1467 1469 1473 1477 1478 1478 1478 1478 1478 1478 1478 1478 1479 1479 1478 1476 1474 1472 1471 1469 1467 1465 1462 1459 1457 1454 1451 1448 1445 1442 1439 1435 1432 1429 1427 1425 1424 1423 1423 1422 1422 1421 1420 1419 1420 1420 1420 1420 1418 1416 1416 1415 1412 1410 1413 1417 1417 1417 1418 1418 1419 1420 1422 1424 1426 1428 1431 1433 1436 1439 1440 1440 1442 1443 1443 1444 1446
1439 1443 1447 1451 1456 1458 1460 1463 1466 1468 1472 1476 1477 1477 1476 1476 1476 1476 1476 1477 1477 1476 1475 1473 1471 1469 1468 1466 1464 1462 1458 1454 1452 1449 1446 1443 1440 1437 1433 1430 1427 1424 1421 1419 1417 1416 1416 1415 1415 1415 1414 1414 1413 1413 1413 1413 1412 1410 1410 1409 1406 1406 1409 1411 1411 1412 1413 1412 1413 1414 1415 1417 1419 1421 1423 1426 1430 1433 1435 1436 1437 1437 1438 1440 1441
1437 1441 1445 1451 1456 1459 1460 1462 1465 1468 1472 1474 1475 1475 1475 1475 1474 1474 1475 1475 1474 1473 1472 1470 1468 1466 1465 1463 1461 1458 1455 1450 1447 1444 1441 1438 1435 1432 1428 1425 1422 1419 1416 1413 1411 1409 1408 1408 1407 1407 1408 1407 1406 1406 1405 1405 1405 1404 1403 1402 1401 1403 1406 1406 1405 1407 1407 1407 1407 1408 1408 1410 1412 1414 1416 1420 1423 1426 1428 1430 1431 1432 1433 1435 1436
1437 1441 1446 1450 1454 1457 1459 1461 1465 1468 1471 1473 1473 1473 1473 1473 1473 1473 1473 1473 1472 1470 1469 1467 1466 1464 1462 1460 1457 1454 1450 1446 1442 1439 1435 1432 1429 1426 1423 1420 1418 1415 1411 1407 1405 1404 1402 1401 1400 1400 1400 1399 1399 1398 1398 1398 1398 1396 1395 1396 1397 1399 1400 1400 1400 1401 1401 1401 1401 1401 1402 1403 1404 1406 1409 1413 1416 1420 1422 1424 1426 1427 1428 1430 1431
1439 1443 1447 1450 1453 1456 1458 1461 1465 1468 1469 1470 1471 1471 1472 1472 1471 1471 1471 1470 1469 1468 1467 1465 1463 1461 1458 1456 1453 1450 1446 1442 1437 1433 1430 1426 1423 1421 1418 1415 1414 1411 1407 1402 1400 1398 1396 1395 1393 1393 1393 1392 1391 1391 1390 1390 1390 1388 1388 1390 1391 1392 1394 1394 1394 1395 1395 1395 1395 1394 1394 1396 1398 1400 1403 1406 1411 1415 1417 1419 1420 1422 1423 1425 1427
1440 1444 1448 1451 1453 1456 1458 1461 1464 1466 1467 1469 1469 1470 1470 1470 1470 1469 1469 1469 1468 1466 1465 1463 1461 1458 1455 1452 1449 1445 1441 1436 1432 1428 1424 1421 1418 1415 1413 1410 1408 1406 1402 1398 1395 1392 1389 1388 1387 1386 1385 1384 1383 1383 1382 1382 1382 1381 1381 1383 1384 1386 1387 1387 1387 1388 1389 1388 1388 1388 1388 1390 1392 1394 1397 1400 1405 1409 1412 1414 1415 1416 1418 1420 1422
1440 1444 1449 1452 1455 1456 1458 1460 1462 1464 1466 1467 1468 1469 1469 1469 1469 1468 1468 1467 1466 1464 1462 1460 1457 1454 1451 1448 1444 1439 1435 1431 1427 1423 1420 1416 1413 1410 1407 1405 1403 1400 1397 1392 1389 1386 1383 1382 1380 1379 1378 1377 1376 1375 1374 1374 1373 1373 1374 1375 1377 1378 1379 1379 1380 1382 1382 1381 1382 1382 1383 1385 1387 1389 1392 1395 1399 1403 1406 1408 1410 1411 1413 1414 1417
1441 1445 1449 1453 1455 1456 1457 1459 1461 1463 1465 1467 1468 1468 1468 1468 1468 1467 1466 1465 1464 1462 1459 1457 1454 1451 1448 1444 1439 1435 1431 1427 1422 1419 1415 1411 1408 1405 1402 1399 1397 1394 1390 1386 1383 1380 1377 1375 1373 1372 1370 1370 1369 1368 1366 1366 1366 1366 1366 1367 1368 1369 1370 1372 1373 1374 1374 1375 1376 1377 1378 1381 1383 1385 1388 1391 1393 1397 1401 1403 1405 1406 1408 1410 1412
1444 1447 1450 1452 1454 1456 1457 1459 1461 1463 1465 1467 1467 1467 1467 1467 1466 1465 1464 1463 1461 1459 1456 1454 1451 1448 1445 1441 1437 1432 1427 1423 1419 1414 1411 1407 1403 1400 1397 1393 1390 1387 1383 1380 1377 1374 1371 1368 1366 1365 1363 1362 1361 1360 1359 1358 1358 1358 1358 1359 1360 1361 1362 1365 1367 1368 1368 1370 1371 1372 1374 1377 1380 1381 1383 1385 1388 1392 1396 1399 1400 1402 1404 1406 1408
1445 1448 1450 1452 1454 1455 1458 1460 1462 1464 1465 1466 1467 1467 1466 1465 1464 1463 1462 1460 1458 1456 1454 1451 1448 1446 1442 1438 1434 1429 1424 1420 1415 1411 1407 1403 1399 1395 1391 1388 1384 1381 1377 1374 1371 1368 1365 1362 1360 1359 1357 1356 1354 1353 1352 1352 1351 1351 1351 1352 1352 1353 1355 1358 1360 1361 1363 1365 1367 1368 1370 1373 1375 1377 1379 1381 1383 1387 1392 1394 1396 1398 1399 1401 1404
1446 1448 1450 1452 1454 1456 1458 1460 1462 1464 1465 1466 1466 1466 1464 1463 1462 1461 1459 1458 1456 1454 1451 1449 1446 1444 1440 1437 1432 1426 1421 1416 1413 1409 1404 1400 1396 1392 1387 1384 1380 1376 1373 1370 1367 1363 1360 1357 1355 1353 1351 1350 1348 1347 1346 1345 1345 1344 1345 1346 1346 1347 1349 1351 1353 1355 1357 1360 1362 1363 1366 1368 1371 1373 1375 1377 1379 1384 1388 1390 1392 1394 1396 1398 1400
1446 1448 1451 1453 1455 1457 1459 1461 1463 1464 1465 1465 1465 1464 1462 1461 1460 1459 1457 1456 1454 1451 1449 1447 1444 1442 1439 1435 1431 1426 1420 1415 1410 1406 1402 1398 1394 1389 1385 1381 1377 1373 1369 1366 1363 1359 1356 1353 1350 1348 1347 1345 1343 1341 1340 1340 1339 1339 1339 1340 1341 1342 1343 1345 1347 1349 1352 1355 1357 1359 1362 1365 1367 1369 1371 1373 1376 1380 1384 1386 1388 1390 1392 1394 1396
1447 1450 1452 1454 1456 1458 1460 1462 1463 1464 1464 1464 1463 1462 1460 1459 1458 1457 1455 1453 1451 1449 1447 1445 1443 1440 1437 1433 1430 1425 1420 1414 1409 1404 1399 1394 1390 1385 1381 1377 1374 1370 1366 1363 1359 1356 1353 1349 1346 1344 1343 1341 1338 1337 1336 1335 1334 1334 1334 1335 1336 1337 1339 1340 1342 1344 1347 1350 1352 1355 1358 1360 1363 1365 1367 1369 1373 1377 1380 1382 1385 1387 1389 1390 1392
1449 1451 1454 1455 1457 1459 1461 1462 1462 1463 1462 1461 1461 1460 1458 1457 1456 1455 1453 1452 1450 1448 1446 1443 1441 1439 1436 1432 1428 1423 1417 1412 1407 1402 1397 1392 1387 1382 1378 1374 1371 1367 1364 1360 1356 1353 1350 1347 1344 1341 1339 1337 1335 1333 1332 1331 1330 1329 1330 1330 1331 1332 1333 1334 1337 1340 1342 1345 1348 1351 1354 1356 1359 1361 1363 1366 1370 1373 1376 1378 1381 1383 1385 1388 1390
1450 1453 1454 1456 1458 1459 1460 1461 1461 1460 1459 1459 1459 1458 1457 1456 1455 1453 1452 1450 1449 1447 1445 1442 1440 1437 1434 1431 1427 1422 1416 1410 1405 1400 1394 1389 1384 1379 1375 1372 1369 1365 1361 1358 1354 1351 1348 1345 1342 1339 1337 1334 1332 1330 1328 1327 1327 1326 1326 1326 1327 1328 1329 1331 1334 1336 1339 1341 1344 1347 1350 1353 1355 1357 1360 1363 1366 1369 1372 1374 1377 1380 1382 1385 1388
1452 1453 1455 1456 1458 1459 1459 1459 1459 1458 1457 1457 1457 1456 1456 1455 1454 1452 1451 1449 1448 1446 1444 1442 1439 1436 1433 1429 1425 1420 1415 1409 1403 1398 1393 1387 1382 1377 1373 1369 1366 1362 1359 1356 1353 1350 1346 1343 1340 1337 1334 1332 1329 1327 1326 1325 1325 1324 1324 1324 1325 1326 1327 1329 1331 1333 1336 1339 1341 1344 1347 1350 1352 1354 1357 1360 1363 1366 1369 1372 1375 1377 1380 1382 1386
1452 1454 1455 1456 1457 1457 1457 1457 1456 1456 1455 1455 1455 1455 1455 1454 1452 1451 1450 1448 1447 1445 1443 1440 1437 1434 1431 1427 1423 1419 1414 1408 1402 1396 1391 1386 1380 1375 1370 1366 1363 1359 1357 1354 1351 1348 1345 1342 1338 1335 1332 1330 1328 1326 1324 1324 1323 1323 1323 1323 1324 1325 1326 1327 1328 1330 1333 1335 1338 1341 1344 1347 1349 1351 1354 1357 1360 1363 1366 1369 1372 1375 1378 1381 1384
1452 1453 1454 1455 1456 1455 1455 1455 1455 1454 1454 1454 1454 1454 1454 1453 1452 1451 1449 1448 1446 1444 1442 1439 1436 1433 1430 1426 1422 1417 1412 1407 1400 1395 1390 1385 1379 1374 1369 1365 1362 1359 1356 1353 1350 1347 1345 1341 1338 1334 1331 1329 1327 1325 1323 1322 1322 1322 1322 1322 1322 1322 1323 1323 1325 1327 1329 1332 1335 1338 1342 1344 1346 1349 1352 1355 1358 1361 1364 1367 1370 1373 1377 1380 1383
1451 1452 1453 1454 1454 1454 1453 1453 1453 1453 1453 1454 1454 1453 1453 1452 1451 1450 1449 1447 1445 1443 1441 1438 1435 1431 1428 1424 1420 1416 1411 1406 1400 1395 1389 1384 1379 1374 1370 1366 1363 1360 1357 1354 1350 1347 1344 1341 1338 1335 1332 1329 1327 1325 1323 1321 1321 1320 1320 1320 1320 1320 1320 1321 1322 1324 1327 1329 1333 1336 1339 1342 1345 1348 1351 1354 1357 1360 1364 1367 1370 1373 1377 1380 1383
1450 1451 1452 1452 1452 1452 1452 1452 1452 1453 1453 1453 1453 1452 1452 1451 1450 1449 1448 1446 1445 1443 1440 1437 1433 1429 1426 1422 1418 1415 1411 1405 1399 1393 1388 1383 1378 1374 1370 1367 1364 1361 1358 1355 1351 1348 1344 1341 1338 1335 1333 1330 1327 1325 1323 1322 1321 1320 1320 1320 1319 1319 1319 1320 1322 1324 1326 1329 1332 1336 1339 1342 1345 1348 1351 1353 1356 1359 1363 1367 1369 1373 1377 1381 1384
1450 1450 1451 1451 1451 1451 1451 1451 1452 1452 1452 1452 1452 1452 1451 1450 1449 1448 1447 1446 1444 1442 1439 1436 1433 1429 1425 1421 1418 1414 1410 1404 1398 1392 1387 1383 1379 1375 1372 1369 1366 1362 1359 1356 1352 1349 1345 1342 1340 1337 1334 1331 1328 1326 1324 1323 1322 1321 1321 1320 1320 1320 1320 1322 1323 1325 1327 1330 1333 1336 1339 1342 1345 1348 1351 1354 1356 1359 1363 1367 1370 1373 1377 1381 1385
1449 1449 1449 1449 1450 1450 1450 1451 1451 1452 1452 1452 1451 1451 1450 1449 1448 1447 1446 1445 1443 1441 1439 1436 1432 1429 1425 1422 1418 1415 1411 1406 1400 1394 1389 1385 1381 1377 1374 1371 1367 1364 1361 1357 1354 1351 1348 1345 1342 1339 1336 1333 1330 1328 1326 1325 1324 1323 1322 1322 1322 1322 1322 1324 1325 1326 1328 1331 1333 1336 1339 1342 1345 1348 1352 1354 1357 1360 1363 1367 1371 1374 1377 1381 1385
1448 1448 1448 1449 1449 1449 1450 1451 1451 1451 1451 1451 1450 1449 1448 1448 1447 1446 1445 1444 1443 1441 1438 1436 1432 1429 1426 1423 1420 1416 1413 1408 1403 1397 1392 1387 1383 1380 1376 1373 1370 1367 1363 1360 1357 1353 1350 1347 1344 1341 1338 1335 1333 1330 1328 1327 1326 1325 1324 1324 1324 1325 1325 1326 1327 1328 1330 1332 1335 1338 1341 1343 1346 1349 1352 1356 1359 1361 1365 1368 1372 1375 1378 1382 1386
1447 1448 1448 1448 1448 1449 1450 1450 1450 1450 1450 1449 1449 1448 1448 1447 1446 1446 1445 1443 1442 1440 1438 1435 1432 1429 1426 1424 1421 1418 1415 1411 1405 1400 1395 1390 1386 1382 1379 1376 1373 1369 1366 1363 1360 1356 1353 1350 1347 1343 1341 1338 1336 1333 1331 1330 1329 1328 1327 1326 1327 1327 1328 1329 1330 1331 1333 1335 1338 1340 1342 1345 1348 1351 1354 1357 1360 1363 1366 1370 1373 1377 1380 1385 1389
1447 1447 1447 1448 1448 1449 1449 1449 1450 1449 1449 1449 1448 1448 1447 1447 1446 1445 1444 1443 1441 1439 1437 1435 1433 1430 1427 1424 1421 1419 1416 1412 1407 1402 1397 1393 1389 1385 1382 1379 1376 1372 1369 1366 1363 1360 1356 1353 1350 1347 1344 1341 1339 1337 1335 1333 1332 1331 1330 1330 1330 1330 1330 1331 1333 1334 1335 1338 1340 1343 1345 1347 1351 1354 1356 1359 1362 1365 1368 1372 1375 1379 1382 1387 1391
1447 1447 1448 1448 1449 1449 1449 1449 1449 1449 1448 1448 1448 1447 1447 1446 1446 1444 1443 1442 1440 1439 1437 1435 1433 1430 1428 1425 1422 1419 1416 1413 1409 1405 1400 1396 1392 1388 1385 1382 1379 1375 1372 1369 1366 1363 1360 1357 1353 1351 1348 1345 1343 1341 1339 1337 1336 1335 1334 1334 1333 1333 1334 1335 1336 1337 1338 1340 1343 1346 1348 1350 1353 1356 1359 1361 1364 1367 1370 1374 1377 1380 1384 1388 1392
1448 1448 1449 1449 1449 1450 1449 1449 1449 1449 1448 1448 1447 1447 1447 1446 1445 1444 1443 1441 1440 1438 1436 1435 1433 1431 1428 1425 1423 1420 1417 1414 1411 1407 1403 1399 1395 1392 1388 1385 1382 1379 1375 1372 1369 1366 1363 1360 1357 1355 1352 1349 1347 1345 1343 1342 1340 1339 1338 1338 1337 1337 1338 1339 1339 1341 1342 1343 1345 1348 1350 1353 1356 1359 1362 1365 1367 1369 1372 1376 1379 1382 1386 1390 1394
1450 1449 1450 1450 1450 1450 1449 1449 1449 1449 1448 1447 1447 1447 1446 1446 1445 1444 1442 1441 1439 1438 1436 1435 1433 1431 1429 1426 1424 1421 1418 1416 1412 1409 1406 1403 1399 1395 1392 1388 1385 1382 1379 1376 1373 1370 1367 1365 1362 1359 1356 1354 1352 1350 1348 1347 1345 1344 1343 1343 1342 1342 1342 1343 1343 1344 1346 1347 1348 1351 1353 1356 1360 1363 1366 1369 1371 1373 1376 1380 1383 1386 1389 1393 1397
1451 1450 1450 1450 1450 1450 1450 1450 1449 1449 1448 1447 1447 1446 1446 1445 1444 1443 1442 1440 1439 1438 1436 1434 1433 1431 1429 1427 1425 1422 1419 1417 1414 1411 1408 1406 1403 1399 1395 1392 1389 1386 1383 1380 1377 1374 1371 1369 1366 1364 1361 1359 1357 1355 1353 1352 1351 1350 1349 1348 1348 1347 1347 1348 1348 1349 1350 1351 1353 1355 1357 1360 1364 1367 1370 1372 1375 1377 1380 1384 1388 1391 1394 1396 1400
1451 1451 1451 1450 1450 1450 1450 1450 1449 1449 1448 1447 1447 1446 1445 1444 1444 1443 1441 1440 1439 1437 1436 1434 1433 1431 1429 1428 1425 1423 1421 1418 1416 1413 1410 1408 1405 1403 1399 1396 1392 1390 1387 1384 1381 1378 1375 1373 1371 1368 1366 1364 1362 1360 1359 1358 1356 1355 1355 1354 1354 1353 1353 1353 1354 1354 1356 1357 1358 1360 1362 1364 1367 1371 1374 1376 1379 1381 1383 1387 1391 1394 1397 1400 1404
1451 1451 1451 1450 1450 1450 1450 1450 1449 1449 1448 1447 1447 1446 1445 1444 1443 1442 1441 1440 1438 1437 1436 1434 1433 1431 1430 1428 1426 1424 1422 1420 1418 1415 1412 1410 1408 1406 1403 1400 1397 1394 1391 1388 1385 1382 1380 1377 1375 1373 1371 1369 1367 1366 1364 1363 1362 1361 1361 1360 1360 1360 1359 1359 1360 1360 1361 1363 1364 1365 1367 1369 1372 1375 1378 1381 1383 1386 1388 1391 1395 1398 1401 1404 1407
1452 1452 1451 1451 1451 1451 1451 1450 1450 1449 1448 1447 1446 1445 1444 1443 1443 1442 1440 1439 1438 1437 1435 1434 1433 1431 1430 1429 1427 1425 1423 1421 1419 1417 1415 1412 1410 1408 1406 1404 1401 1398 1395 1392 1390 1387 1385 1382 1380 1378 1376 1374 1373 1371 1370 1369 1368 1367 1367 1367 1366 1366 1366 1366 1366 1367 1368 1369 1370 1371 1373 1375 1378 1380 1384 1387 1389 1392 1394 1397 1399 1402 1405 1407 1410
1453 1453 1452 1452 1452 1451 1451 1450 1450 1449 1448 1447 1446 1445 1444 1443 1443 1442 1440 1439 1438 1437 1435 1434 1432 1431 1430 1429 1428 1426 1425 1423 1421 1419 1417 1415 1413 1410 1409 1407 1404 1402 1399 1397 1395 1392 1389 1387 1385 1383 1381 1379 1377 1376 1375 1374 1374 1373 1373 1372 1372 1372 1372 1372 1372 1373 1374 1375 1376 1378 1380 1382 1384 1386 1389 1392 1395 1397 1399 1401 1404 1406 1409 1411 1414